Vertical_Velocity
-1 2 -3 0 0 -1 -3 -3 -4 -2 1 -15 1 -1 -1 -0 -0 -1 1 2 1 1 0 0 0 2 1 3 7 0 -3 -2 -1 -4 -4 -3 -3 -2 -2 -4 -6 -0 2 -0
1 -5 4 -2 -1 -2 -3 -2 -1 -1 1 -5 -0 1 1 -2 -1 0 -1 -0 0 -1 1 -2 2 -0 0 -1 1 1 0 -5 -4 -17 -16 -6 -3 -2 -1 -1 -0 0 2 -3
-4 0 5 5 -0 -2 -2 -2 -6 -4 -7 2 -4 -1 -0 0 0 1 0 -1 0 -1 -0 -1 -2 -2 -3 -0 4 -0 -3 -0 3 -3 -10 -2 -2 -1 -1 -2 -2 -2 -2 -4
-2 -7 7 1 2 -1 -2 -1 -1 0 -2 -2 -1 -1 -0 -0 -1 0 1 -1 -1 2 0 -1 0 -1 -5 -4 1 -5 -3 -1 1 -2 -1 2 -0 -0 -0 -2 -3 -5 -5 -1
-3 1 -2 5 0 -1 -2 -2 -4 0 -1 1 -0 -0 1 -0 -1 0 -1 -1 -1 1 -1 -7 -3 -0 0 2 -10 0 -2 -6 1 -3 -1 1 1 0 -0 -0 -0 -1 0 -3
-1 2 -2 4 -1 -0 -1 -0 -0 2 1 1 -4 -3 -1 -1 0 -1 -2 -1 1 0 -3 0 -0 1 -1 -2 1 -0 0 -1 -1 -4 1 -1 0 -2 0 -1 -0 -5 -2 -9
-13 1 -0 -1 0 -1 -1 -0 -2 -1 -2 -1 -2 -0 -1 -0 -1 -3 -1 2 -0 -4 5 1 2 3 1 3 -5 4 0 -0 0 -2 -5 -7 -13 -0 0 2 -1 -0 0 -1
-5 0 0 -4 1 -1 -2 2 -2 -1 -1 -0 2 1 -1 1 1 0 -1 -1 -2 -0 -0 -5 -4 -4 -2 -3 -1 0 -0 -2 -4 -3 -0 -6 1 -2 -2 -5 -5 -1 -0 -1
1 -2 -0 -4 -1 -1 -1 2 -1 0 -7 -7 0 -1 -0 -2 -0 -0 -1 1 -0 -1 -0 -2 -2 -2 -3 -5 -7 1 -1 -2 -6 -2 -0 0 -6 -1 0 -0 -5 -0 -1 -0
5 -2 -2 -2 -1 -0 -1 1 -1 1 -2 -1 -1 -2 -4 -0 -0 -3 2 -1 -1 2 -1 -1 -2 -3 -4 -5 -1 -2 -2 -2 -4 -1 -1 -6 -3 -1 -0 -11 -11 -1 -1 -1
2 -1 -4 0 -0 -1 -0 -0 -1 0 -0 0 -1 -1 -2 -1 -1 -3 1 -7 -5 -2 -4 -2 -2 -1 -5 -3 -4 -4 -3 -5 -1 -2 -1 -10 -3 0 -12 -12 -2 -2 -1 -1
1 -2 -3 0 -0 -1 -0 -1 -0 -0 -1 -0 1 0 -1 -1 -1 -3 -1 -2 -2 -1 -4 -3 -2 -1 -1 -3 -4 -3 -12 -13 -10 -15 -16 -3 -3 -7 -2 -0 -1 -2 -1 1
0 -2 -1 -0 0 -2 -0 -1 -0 0 -1 -0 0 -1 -0 -1 -0 -0 -3 0 0 0 -1 -2 -2 -2 -3 -2 -5 -1 -2 1 -2 -8 -10 -8 1 2 -1 -1 -3 3 -1 1
1 -0 -1 1 -1 -2 -1 0 0 0 -2 -0 -1 -1 -0 -0 -0 -1 -1 -1 -1 0 -0 -1 -1 -0 1 -3 -6 -2 -6 -1 -4 -6 -6 -1 -4 -3 -1 -2 -0 -1 0 -1
1 -0 -2 -1 -0 -2 -1 1 0 1 -1 -1 -0 -0 1 -0 2 0 0 1 -0 -1 -0 -1 -3 0 -1 0 -2 -1 -4 -9 -6 -12 -7 -4 -6 -1 -0 -2 -3 0 0 -1
1 -0 -2 0 -0 -1 0 0 0 -0 0 1 -2 -0 1 0 1 0 0 -0 1 -0 -2 -2 1 -1 -1 -2 -1 -11 -2 -2 3 -5 -2 3 -1 -4 -1 -1 2 2 -1 -1
-0 1 0 -1 0 0 0 -1 0 -1 0 0 -1 -0 1 1 3 3 1 1 0 1 -0 1 1 -1 0 0 -1 -8 0 2 5 1 5 1 0 -4 -2 -1 -0 0 -1 0
-1 -1 1 -0 0 -0 0 -1 1 -0 0 0 -2 -3 0 2 -0 0 1 -0 1 1 -1 1 0 1 3 -1 -13 -2 -1 -1 -3 0 3 3 -1 -2 -0 -2 1 -2 -2 2
0 0 -1 -2 1 -0 -1 -1 0 0 1 -0 0 -2 -3 1 1 1 0 1 -0 3 -1 -0 3 -2 -5 -13 -3 -1 -0 -3 -1 -2 2 1 -1 -1 -0 -1 0 -2 -2 2
-2 2 -1 -0 1 -0 -1 1 -0 -0 -0 0 -0 1 -3 1 1 1 1 2 -0 -1 -5 1 0 -6 -11 -6 -5 -2 2 0 1 -0 1 1 -2 -2 -1 -1 -1 -1 -1 0
-1 1 -1 -1 2 -0 -1 -1 -1 1 -1 1 0 1 -2 2 -3 -2 0 -2 -1 -2 -7 -5 -2 -4 -6 0 -1 -1 -1 -0 1 2 1 -1 -2 -2 -2 -1 -0 1 -0 -2
1 1 1 -1 2 -0 -2 -2 0 -0 -5 0 -1 0 1 0 -1 -2 1 -2 -4 -4 1 -4 -1 -12 -4 -2 -1 -1 -1 -2 -1 0 1 0 -1 -1 -1 -1 -2 -1 -0 0
1 0 -0 2 1 -6 -2 -2 -5 -2 -1 -1 -1 -0 0 -0 -1 -1 -3 -3 -5 1 -3 -4 -10 -5 -2 -1 0 -0 -1 -2 -1 -1 -0 -1 -1 -0 -1 -1 0 -1 -2 1
1 -0 -3 -4 -1 -2 -4 -3 -2 0 -0 -0 -0 -1 -2 0 -2 -0 -2 -6 -3 -2 0 -8 -4 -5 -2 -2 0 -1 -1 -2 -1 -1 0 0 -0 -1 -1 -1 -1 -0 -1 -1
1 2 -4 -0 -1 -1 -0 1 0 -1 -0 -2 -1 -1 -0 0 -2 -0 0 1 -1 -3 -7 -4 -4 -2 -2 -1 -1 -1 0 2 -1 -0 -1 0 0 -1 -0 -1 0 -1 -0 1
-1 1 1 1 0 0 -1 -1 3 2 -1 -0 1 -1 -2 -1 -1 1 -3 2 -5 -7 -3 -3 -0 -1 -0 -1 0 -0 0 1 0 1 1 0 0 -0 -1 -1 0 -0 -1 -1
0 -3 -1 -1 1 -1 -0 -0 -1 0 0 -1 -1 1 -5 -1 1 1 -1 -5 -6 -3 -2 1 2 0 -0 -0 -1 -1 1 0 -0 1 1 1 -0 -0 -1 -1 0 -0 -1 -1
Height
1564 1562 1558 1555 1550 1549 1547 1546 1548 1546 1543 1544 1551 1561 1561 1562 1563 1562 1562 1561 1560 1559 1558 1555 1550 1548 1544 1541 1537 1536 1532 1536 1543 1536 1526 1527 1536 1537 1540 1538 1527 1515 1500 1524
1564 1561 1558 1553 1551 1549 1547 1547 1548 1547 1543 1554 1560 1560 1561 1562 1562 1563 1563 1562 1560 1560 1558 1560 1550 1548 1545 1542 1539 1539 1532 1539 1550 1542 1537 1526 1538 1537 1535 1530 1530 1520 1521 1534
1564 1562 1557 1552 1550 1549 1548 1549 1550 1548 1547 1552 1555 1559 1561 1561 1562 1562 1562 1561 1560 1560 1558 1556 1556 1550 1546 1543 1540 1536 1534 1535 1533 1544 1540 1536 1538 1531 1536 1535 1539 1540 1540 1539
1561 1560 1559 1552 1549 1548 1548 1549 1550 1551 1556 1555 1555 1557 1560 1561 1562 1562 1561 1561 1561 1562 1565 1557 1554 1552 1550 1545 1543 1540 1539 1550 1534 1532 1527 1522 1524 1528 1535 1544 1543 1542 1541 1537
1561 1557 1557 1552 1549 1547 1548 1549 1549 1552 1553 1554 1555 1558 1560 1561 1561 1561 1561 1561 1560 1558 1563 1563 1568 1560 1554 1552 1545 1543 1540 1549 1535 1528 1513 1516 1518 1525 1528 1531 1540 1541 1536 1534
1561 1558 1553 1551 1549 1546 1546 1547 1548 1549 1555 1554 1557 1559 1558 1558 1559 1559 1558 1558 1558 1556 1555 1554 1552 1553 1553 1551 1550 1546 1545 1550 1542 1542 1519 1515 1529 1534 1529 1533 1535 1537 1539 1534
1561 1560 1553 1551 1549 1546 1547 1546 1548 1548 1556 1554 1554 1555 1556 1556 1557 1559 1556 1556 1556 1553 1551 1548 1547 1548 1548 1547 1545 1545 1545 1550 1544 1543 1535 1550 1532 1527 1526 1527 1527 1526 1526 1525
1555 1556 1553 1551 1549 1547 1546 1546 1547 1546 1552 1550 1553 1553 1553 1554 1554 1556 1553 1554 1553 1551 1549 1551 1553 1550 1547 1542 1540 1541 1541 1555 1561 1551 1554 1533 1528 1528 1532 1534 1528 1524 1524 1522
1554 1553 1552 1551 1549 1547 1545 1545 1545 1545 1545 1549 1548 1551 1552 1554 1554 1553 1552 1552 1551 1550 1549 1552 1558 1557 1558 1553 1543 1538 1539 1545 1554 1552 1548 1529 1535 1527 1527 1528 1530 1523 1522 1521
1552 1551 1551 1550 1549 1547 1545 1544 1544 1545 1544 1545 1547 1548 1550 1550 1551 1553 1551 1551 1551 1550 1552 1554 1560 1563 1552 1561 1560 1552 1549 1553 1560 1549 1547 1534 1527 1525 1527 1540 1529 1521 1521 1521
1551 1550 1549 1549 1548 1546 1545 1544 1543 1544 1542 1543 1544 1545 1546 1547 1548 1552 1550 1552 1551 1550 1558 1558 1558 1559 1557 1560 1551 1554 1554 1566 1551 1542 1555 1548 1523 1525 1533 1521 1517 1517 1517 1517
1549 1548 1548 1548 1547 1546 1545 1544 1543 1542 1543 1543 1543 1543 1545 1545 1545 1546 1547 1549 1548 1548 1554 1556 1555 1551 1556 1560 1554 1543 1553 1538 1547 1540 1527 1512 1514 1514 1514 1513 1513 1513 1513 1514
1547 1546 1547 1547 1546 1545 1545 1543 1543 1542 1542 1542 1542 1543 1543 1543 1544 1545 1546 1547 1546 1546 1546 1547 1549 1557 1545 1554 1544 1544 1531 1527 1533 1529 1509 1507 1508 1509 1509 1509 1508 1509 1509 1509
1546 1545 1545 1545 1544 1544 1543 1542 1541 1542 1541 1541 1542 1541 1541 1541 1541 1542 1543 1543 1544 1545 1545 1545 1547 1547 1538 1541 1534 1535 1525 1524 1524 1521 1507 1505 1504 1503 1503 1504 1504 1504 1504 1504
1545 1544 1544 1543 1543 1542 1541 1541 1540 1540 1543 1540 1539 1539 1538 1538 1539 1539 1540 1541 1542 1542 1543 1544 1545 1538 1537 1534 1534 1529 1511 1509 1516 1511 1496 1497 1497 1499 1499 1499 1499 1499 1499 1500
1544 1543 1542 1543 1542 1541 1540 1540 1541 1540 1540 1540 1539 1538 1535 1536 1537 1537 1538 1539 1539 1540 1540 1538 1535 1534 1536 1541 1537 1497 1495 1494 1493 1492 1492 1493 1493 1495 1495 1495 1495 1495 1494 1495
1542 1541 1541 1541 1540 1540 1541 1542 1540 1539 1539 1539 1539 1535 1534 1535 1536 1537 1537 1537 1537 1538 1537 1535 1533 1533 1534 1534 1530 1487 1489 1489 1490 1490 1491 1491 1491 1491 1491 1491 1490 1490 1489 1489
1540 1539 1539 1539 1539 1539 1539 1538 1538 1538 1538 1538 1538 1535 1534 1534 1534 1535 1535 1535 1535 1535 1534 1532 1531 1531 1529 1523 1486 1486 1487 1487 1487 1486 1487 1488 1488 1488 1488 1486 1485 1484 1484 1484
1539 1538 1537 1538 1538 1537 1537 1537 1536 1536 1540 1535 1534 1536 1535 1532 1532 1533 1534 1534 1534 1533 1531 1529 1529 1525 1520 1487 1482 1482 1483 1484 1483 1482 1483 1484 1484 1484 1484 1481 1480 1478 1477 1478
1538 1537 1537 1537 1536 1535 1536 1534 1535 1535 1535 1534 1530 1529 1530 1531 1531 1531 1533 1532 1532 1536 1529 1528 1526 1512 1486 1482 1480 1477 1479 1480 1480 1481 1481 1481 1481 1481 1479 1478 1476 1475 1474 1473
1537 1536 1535 1536 1535 1534 1534 1534 1534 1534 1532 1528 1527 1527 1526 1529 1530 1530 1532 1533 1532 1542 1530 1531 1525 1508 1479 1475 1474 1474 1473 1475 1476 1477 1477 1477 1477 1476 1475 1474 1472 1471 1470 1469
1536 1536 1534 1534 1534 1533 1535 1534 1533 1531 1528 1524 1525 1526 1526 1526 1527 1528 1532 1535 1536 1539 1529 1532 1526 1486 1473 1472 1471 1471 1471 1471 1472 1473 1474 1474 1473 1472 1471 1470 1468 1467 1466 1465
1533 1533 1533 1532 1533 1536 1535 1531 1527 1528 1518 1519 1521 1524 1525 1526 1528 1530 1531 1539 1538 1530 1538 1521 1493 1470 1469 1469 1468 1467 1468 1468 1468 1470 1470 1470 1470 1469 1467 1466 1465 1464 1463 1462
1532 1531 1531 1529 1530 1525 1516 1515 1514 1514 1514 1516 1518 1521 1526 1526 1527 1529 1533 1532 1532 1538 1534 1500 1473 1465 1465 1464 1464 1463 1462 1463 1464 1465 1466 1466 1466 1465 1463 1462 1461 1461 1460 1459
1529 1528 1526 1520 1511 1509 1510 1510 1509 1511 1513 1515 1517 1521 1524 1526 1529 1528 1529 1528 1521 1511 1491 1473 1462 1462 1461 1460 1459 1458 1458 1458 1459 1460 1461 1462 1461 1460 1460 1459 1458 1457 1456 1456
1523 1520 1514 1509 1509 1506 1507 1508 1509 1507 1511 1514 1515 1519 1524 1525 1524 1526 1519 1514 1498 1476 1469 1461 1460 1458 1456 1456 1455 1455 1455 1455 1455 1456 1457 1457 1457 1456 1455 1455 1454 1453 1452 1451
1514 1507 1504 1504 1502 1501 1502 1503 1504 1507 1509 1510 1512 1513 1510 1519 1519 1513 1504 1491 1469 1461 1460 1458 1456 1454 1453 1452 1452 1451 1451 1451 1452 1452 1453 1453 1452 1452 1451 1450 1450 1449 1448 1448